Regional Weather Roundup
Issued by NWS

Home | Current Version | Previous Version | Graphics & Text | Print | Product List | Glossary Off
Versions: 1 2 3 4 5 6 7 8 9 10 11 12 13 14 15 16 17 18 19 20 21 22 23 24 25 26 27 28 29 30 31 32 33 34 35 36 37 38 39 40 41 42 43 44 45 46 47 48 49 50

059
ASUS43 KMKX 252021
RWRWI

WISCONSIN REGIONAL WEATHER ROUNDUP
NATIONAL WEATHER SERVICE MILWAUKEE/SULLIVAN WI
300 PM CDT WED MAY 25 2016

NOTE: "FAIR" INDICATES FEW OR NO CLOUDS BELOW 12,000 FEET WITH NO
SIGNIFICANT WEATHER AND/OR OBSTRUCTIONS TO VISIBILITY.

WIZ001-002-006>008-014>016-023>028-252100-
NORTHWEST WISCONSIN

CITY           SKY/WX    TMP DP  RH WIND       PRES   REMARKS
SUPERIOR ARPT  CLOUDY    45  44  99 E13G23    29.98R FOG
ASHLAND        CLOUDY    55  50  83 N14       29.96F
HAYWARD        RAIN      72  58  61 E8        29.87F
SIREN          RAIN      63  61  94 N8        29.88F
CUMBERLAND     LGT RAIN  70  63  78 NE3       29.85F
RICE LAKE      RAIN      72  63  72 SW3       29.86F
CHETEK         PTSUNNY   74  65  74 CALM      29.83F
LADYSMITH      CLOUDY    80  59  49 SE10G17   29.86F HX  80
EAU CLAIRE     TSTM      68  65  90 E6        29.86R
MENOMONIE      DRIZZLE   73  67  83 S7        29.85F
NEW RICHMOND   LGT RAIN  69  66  89 CALM      29.86F
OSCEOLA        LGT RAIN  67  67 100 E3        29.88S
$$

WIZ003>005-009-010-017-018-252100-
NORTH CENTRAL WISCONSIN

CITY           SKY/WX    TMP DP  RH WIND       PRES   REMARKS
MANITOWISH WTR NOT AVBL
ARBOR VITAE    CLOUDY    77  53  42 SE13      29.94F
WOODRUFF       CLOUDY    77  53  42 SE13      29.94F
RHINELANDER    CLOUDY    77  56  48 E14       29.95F
EAGLE RIVER      N/A     77  51  41 E15       29.95F
LAND O LAKES   MOSUNNY   75  53  46 E13       29.98F
PHILLIPS       CLOUDY    78  60  54 SE12      29.91F
TOMAHAWK       MOSUNNY   76  58  53 SE7       29.93F
MEDFORD        CLOUDY    74  61  62 E13G21    29.88F
MERRILL        CLOUDY    78  60  54 SE15G21   29.93F
$$

WIZ029-030-035-036-043>047-252100-
CENTRAL WISCONSIN

CITY           SKY/WX    TMP DP  RH WIND       PRES   REMARKS
WAUSAU         MOSUNNY   77  59  53 E16G23    29.90F
MOSINEE        SUNNY     73  61  64 E12G18    29.92F
MARSHFIELD     LGT RAIN  73  60  63 E10       29.88F
STEVENS POINT  PTSUNNY   74  58  58 E16G24    29.90F
WAUPACA        PTSUNNY   78  60  54 E13G18    29.92F
WAUTOMA        CLOUDY    77  62  59 E16G24    29.88F
WISC RAPIDS    CLOUDY    77  59  53 E17       29.89F
CAMP DOUGLAS   TSTM      70  70 100 E12       29.88R
$$

WIZ011>013-019>022-031-037>040-048>050-252100-
NORTHEAST WISCONSIN

CITY           SKY/WX    TMP DP  RH WIND       PRES   REMARKS
ANTIGO         SUNNY     75  60  59 SE18G26   29.95F
SHAWANO        MOSUNNY   77  59  55 E13       29.96F
OCONTO         SUNNY     68  58  69 E10G20    29.99F
STURGEON BAY   NOT AVBL
GREEN BAY      MOSUNNY   70  59  68 NE14      29.97F
MANITOWOC      MOSUNNY   62  56  80 NE14      29.99F
APPLETON       PTSUNNY   75  55  50 E13G18    29.93F
CLINTONVILLE   MOSUNNY   73  59  60 SE12      29.95F
OSHKOSH        CLOUDY    76  59  55 E15G22    29.92F
$$

WIZ032>034-041-042-053>061-252100-
SOUTHWEST WISCONSIN

CITY           SKY/WX    TMP DP  RH WIND       PRES   REMARKS
LA CROSSE      LGT RAIN  71  67  87 CALM      29.84F
SPARTA         CLOUDY    74  68  82 S5        29.87F
VIROQUA        CLOUDY    70  65  84 E8        29.88F
BOSCOBEL       CLOUDY    87  61  41 S12G23    29.84F HX  87
PRAIRIE DU CHI MOSUNNY   80  60  50 S6        29.84F HX  81
PLATTEVILLE    PTSUNNY   84  61  46 S20G26    29.87F HX  84
$$

WIZ056-057-062-063-064-067-068-252100-
SOUTH CENTRAL WISCONSIN

CITY           SKY/WX    TMP DP  RH WIND       PRES   REMARKS
REEDSBURG      CLOUDY    81  64  57 SE5       29.85F HX  82
BARABOO/DELLS  CLOUDY    78  62  56 SE23G29   29.88F HX  80
LONE ROCK      CLOUDY    88  60  38 S16G25    29.84F HX  87
MINERAL POINT  MOSUNNY   86  59  39 S13G22    29.87F HX  85
MADISON        CLOUDY    83  60  45 S15G26    29.87F THUNDER HX  83
MIDDLETON      CLOUDY    80  64  56 SW17G29   29.90S HX  82
WATERTOWN      CLOUDY    83  66  55 SE16      29.90F HX  85
MONROE         CLOUDY    82  55  39 S18       29.90F HX  82
JANESVILLE     PTSUNNY   86  59  39 SE15G22   29.90F HX  85
$$

WIZ051-052-058>065-066-070>072-252100-
SOUTHEAST WISCONSIN

CITY           SKY/WX    TMP DP  RH WIND       PRES   REMARKS
MILWAUKEE      CLOUDY    57  50  77 NE12      29.97F
WAUKESHA       SUNNY     72  57  60 E12       29.96F
MILWAUKEE/TIMM SUNNY     66  52  59 NE8       29.98S
RACINE         MOSUNNY   67  55  65 NE9       29.97F
BURLINGTON     PTSUNNY   82  62  50 SE10      29.92F HX  83
KENOSHA        MOSUNNY   75  61  61 SE14      29.95F
FOND DU LAC    MOSUNNY   80  61  52 E13G22    29.92F HX  81
SHEBOYGAN      MOSUNNY   61  54  77 E15       29.99F
WEST BEND      MOSUNNY   72  59  64 E12       29.96S
JUNEAU         MOSUNNY   81  65  58 E17G23    29.91F HX  83
$$

LSZ147-162-252100-
LAKE SUPERIOR

STATION/POSITION TIME  TEMP    WIND        PRES    WAVE
                       AIR SEA DIR/SP/G            HT/PER
                 (UTC) (F)     (DEG/KT/KT) (MB)    (FT/S)
W MID LAKE BUOY  1950   40 38   50/ 17/ 19 1016.3F   2/ 4
DEVILS ISLAND    2000   42      60/ 18/ 21 1015.9F
SAXON HARBOR     1900   47      20/  4/  6 1014.9F
$$

LMZ867-665-643>646-252100-
LAKE MICHIGAN

STATION/POSITION TIME  TEMP    WIND        PRES    WAVE
                       AIR SEA DIR/SP/G            HT/PER
                 (UTC) (F)     (DEG/KT/KT) (MB)    (FT/S)
CHAMBERS ISLAND  1900   56      20/ 12/ 14 1017.3F
N MID LAKE BUOY  1950   49 45   30/  8/ 10 1017.1F   0
NORTHPORT PIER   1900   60      70/  6/  9 1017.6F
SISTER BAY       1820   66      20/  8/ 11   N/A
ALGOMA LAKESHORE 1917           60/ 19/ 25   N/A
KEWAUNEE LAKESHO 1900   51      30/  5/ 11 1016.3F
SHEBOYGAN LAKESH 2000   49      20/ 12/ 12 1016.1F
PORT WASHINGTON  1900   53      40/ 13/ 17 1016.6
S MID LAKE BUOY  1950   60 53  120/  4/  6 1014.3F   0
KENOSHA   LAKESH 2000   53      20/  7/  9 1014.2F
$$

TC  - TEMPERATURE IN CELSIUS
VSB - VISIBILITY IN STATUTE MILES
WCI - WIND CHILL INDEX
HX  - HEAT INDEX





USA.gov is the U.S. government's official web portal to all federal, state and local government web resources and services.